Regional Weather Roundup
Issued by NWS

Home | Current Version | Previous Version | Text Only | Print | Product List | Glossary On
Versions: 1 2 3 4 5 6 7 8 9 10 11 12 13 14 15 16 17 18 19 20 21 22 23 24 25 26 27 28 29 30 31 32 33 34 35 36 37 38 39 40 41 42 43 44 45 46 47 48 49 50
000
ASUS45 KTFX 011104
RWRMT
MONTANA HOURLY WEATHER ROUNDUP
NATIONAL WEATHER SERVICE GREAT FALLS MT
504 AM MDT SAT NOV 1 2014

NOTE: "FAIR" INDICATES FEW OR NO CLOUDS BELOW 12000 FEET WITH NO
SIGNIFICANT WEATHER AND/OR OBSTRUCTIONS TO VISIBILITY.

* THESE STATIONS ARE NOT UNDER NWS QUALITY CONTROL. THEY DO NOT
   REPORT WEATHER SUCH AS PRECIPITATION OR FOG.

MTZ001>007-043-011200-
WEST OF THE DIVIDE
CITY           SKY/WX    TMP DP  RH WIND       PRES   REMARKS
KALISPELL      FOG       36  36 100 N3        29.73F VSB M1/4
MISSOULA       MOCLDY    36  34  92 NW3       29.72S
BUTTE          CLOUDY    36  28  73 CALM      29.74F
MULLAN PASS    FOG       36  36 100 N5        29.73F WCI  32
* ESSEX        N/A       33  31  92 NE1        N/A
* LINCOLN      N/A       27  26  96 SW1        N/A
* LOOKOUT PASS N/A       41  41 100 N6         N/A
* POLSON       N/A       39  39 100 E1         N/A
* RONAN APT    PTCLDY    34  32  92 N/A        N/A
* SEELEY LAKE  N/A       27  26  96 N/A        N/A
* THOMP F APT  MOCLDY    52  24  34 SE7G17     N/A
* YAAK HILL    N/A       44  41  89 N/A        N/A
$$

MTZ008-052>055-011200-
SOUTHWEST MONTANA
CITY           SKY/WX    TMP DP  RH WIND       PRES   REMARKS
DILLON         CLOUDY    43  27  53 VRB3      29.71F
W YELLOWSTONE  CLOUDY    28  27  96 CALM      29.86F
* THREE FORKS  MOCLDY    34  28  79 N/A        N/A
* BOULDER HILL N/A       43  22  43 SW7        N/A
* MONIDA PASS  N/A       43  24  47 E7         N/A
* RAYNOLDS PAS N/A       49  33  54 S15G20     N/A
* WHITEHALL    N/A       33  25  72 NW3        N/A
* WISE RIVER   N/A       31  27  85 W3         N/A
$$

MTZ009>010-012-014-046-048-049-054-011200-
EAST SLOPES AND CENTRAL MONTANA
CITY           SKY/WX    TMP DP  RH WIND       PRES   REMARKS
CUT BANK       CLEAR     36  28  73 NW5       29.71S WCI  32
GREAT FALLS    PTCLDY    37  30  76 SW5       29.69F WCI  33
HELENA         MOCLDY    36  30  79 CALM      29.72S
MALMSTROM AFB  MOCLDY    37  32  82 SW7       29.71F WCI  32
* CONRAD       CLEAR     28  27  96 N/A        N/A
* DEARBORN     N/A       36  32  85 S1         N/A
* EAST GLACIER N/A       43  32  65 W6         N/A
* MONARCH      N/A       41  23  49 S4         N/A
* SAINT MARY   N/A       37  30  76 SE3        N/A
* SWEET GRASS  N/A       47  31  54 W8         N/A
$$

MTZ011-013-016-021-035-040-045-047-050-051-011200-
NORTH CENTRAL MONTANA
CITY           SKY/WX    TMP DP  RH WIND       PRES   REMARKS
HAVRE          MOCLDY    25  23  92 CALM      29.72S
LEWISTOWN      MOCLDY    39  28  65 SE6       29.72F WCI  35
* N BAR RANCH  CLEAR     43  28  56 W8        29.75S
* CHESTER      N/A       27  24  88 N2         N/A
* DENTON       N/A       35  30  82 S2         N/A
* GEYSER       N/A       40  31  70 S8         N/A   WCI  35
* JUDITH GAP   N/A       41  29  62 SW4        N/A
* LOMA         N/A       33  31  92 W6         N/A   WCI  27
$$

MTZ017>020-022>027-061-062-011200-
NORTHEAST MONTANA
CITY           SKY/WX    TMP DP  RH WIND       PRES   REMARKS
GLASGOW        MOCLDY    36  28  73 E10       29.72S WCI  29
GLENDIVE       CLEAR     28  23  81 CALM      29.77S
JORDAN         MOCLDY    30  28  92 CALM      29.71S
SIDNEY         CLEAR     28  19  69 CALM      29.79F
WOLF POINT     PTCLDY    30  25  82 E5        29.75F WCI  25
* BEAVER HILL  N/A       33  26  75 E11G16     N/A   WCI  24
* CIRCLE       N/A       39  32  76 N/A        N/A
* LINDSAY DVD  N/A       33  28  82 E4         N/A
* NAVAJO       N/A       29  21  72 S5         N/A   WCI  24
* PLENTYWOOD A N/A       38 N/A N/A N/A        N/A
$$

MTZ028>042-056>058-011200-
SOUTHCENTRAL AND SOUTHEAST MONTANA
CITY           SKY/WX    TMP DP  RH WIND       PRES   REMARKS
BAKER          CLEAR     30  25  82 E8        29.78S WCI  22
BILLINGS       CLOUDY    48  30  50 CALM      29.72F
LIVINGSTON     PTCLDY    39  25  57 NW5       29.74F WCI  35
MILES CITY     PTCLDY    37  30  76 SE5       29.73F WCI  33
* LAUREL APT   CLOUDY    46  27  48 N/A        N/A
* ROUNDUP APT  CLOUDY    45  30  56 SW13       N/A
* ALZADA       N/A       31  28  89 E4         N/A
* HYSHAM       N/A       49  29  46 N/A        N/A
* LAME DEER    N/A       59  26  28 SE5        N/A
* REED POINT   N/A       35  33  92 N/A        N/A
* ROSCOE HILL  N/A       54  19  25 SW4        N/A
$$

REGIONAL REPORTS...DAKOTAS
CITY           SKY/WX    TMP DP  RH WIND       PRES   REMARKS
WILLISTON      PTCLDY    32  19  59 S3        29.80F
DICKINSON      MOCLDY    34  18  52 S17       29.80S WCI  23
BEACH          N/A       32  23  69 S10       29.78F WCI  24
CROSBY         CLEAR     32  21  64 S12       29.80F WCI  23
TIOGA          CLEAR     30  19  64 SE7       29.84F WCI  23
BISMARCK       PTCLDY    30  18  61 SE14      29.95F WCI  19
GRAND FORKS    PTCLDY    30  18  61 S17       30.18F WCI  18
FARGO          PTCLDY    30  18  61 SE24G32   30.23F WCI  16
BUFFALO SD     MOCLDY    34  23  64 S7        29.74F WCI  28
RAPID CITY     PTCLDY    37  28  70 SE13      29.83F WCI  29
$$

REGIONAL REPORTS...WYOMING/IDAHO/WASHINGTON
CITY           SKY/WX    TMP DP  RH WIND       PRES   REMARKS
GILLETTE       MOCLDY    43  28  56 SE6       29.80S
SHERIDAN       CLOUDY    36  30  79 N6        29.76F WCI  31
CODY           CLOUDY    48  27  44 CALM      29.79F
YELLOWSTONE LA MOCLDY    28  27  96 NW3       29.95R
SALMON         PTCLDY    30  27  89 CALM      29.69F
MULLAN PASS    FOG       36  36 100 N5        29.73S WCI  32
SAND POINT     FOG       45  45 100 CALM      29.74S
SPOKANE        CLOUDY    45  43  93 CALM      29.74F

$$




USA.gov is the U.S. government's official web portal to all federal, state and local government web resources and services.